Observer details:
114 Engelhardt Observatory, Zelenchukskaya Station.  Observers T. Kryachko,
    B. Satovski.  Measurer T. Kryachko.  0.3-m f/7.7 reflector + CCD.
291 LPL/Spacewatch II.  Observers R. S. McMillan, T. H. Bressi.  1.8-m f/2.7
    reflector + CCD.
658 National Research Council of Canada.  Observer D. D. Balam.  Measurers
    D. D. Balam, D. Bohlender, D. Monin, E. Chisholm, J. J. Kavelaars.  1.82-m
    Plaskett telescope + CCD.
691 Steward Observatory, Kitt Peak.  Observer R. S. McMillan.  0.9-m f/3
    reflector + CCD.
844 Los Molinos.  Observers S. Roland, S. Bruzzone, R. Salvo, G. Tancredi.
    Measurer S. Roland.  0.35-m reflector + CCD.
850 Cordell-Lorenz Observatory, Sewanee.  Observer D. T. Durig.  0.30-m f/3.2
    Schmidt-Cassegrain + CCD.
854 Sabino Canyon Observatory, Tucson.  Observer J. E. McGaha.  0.36-m f/10.0
    Schmidt-Cassegrain + CCD.
926 Tenagra II Observatory.  Observers P. R. Holvorcem, M. Schwartz.  Measurer
    P. R. Holvorcem.  0.41-m f/3.75 astrograph + CCD.
D88 Hiratsuka.  Observer Y. Sugiyama.  0.25-m f/5.0 reflector + CCD.
D90 RAS Observatory, Moorook.  Observer R. Ligustri.  0.40-m f/9 reflector
    + CCD.
D96 Tzec Maun Observatory, Moorook.  Observers P. Concari, S. Foglia, G. Galli,
    M. Tombelli.  0.18-m f/2.8 Newtonian reflector + CCD.
F65 Haleakala-Faulkes Telescope North.  Observer J. Cave.  Measurer R. Miles.
    2.0-m f/10.0 Ritchey-Chretien + CCD.
G96 Mt. Lemmon Survey.  Observer A. Boattini.  Measurers J. D. Ahern,
    E. C. Beshore, A. Boattini, A. R. Gibbs, A. D. Grauer, R. E. Hill,
    R. A. Kowalski, S. M. Larson.  1.5-m reflector + CCD.
H06 RAS Observatory, Mayhill.  Observers H. Sato, T. Yusa.  0.25-m f/3.4
    reflector + CCD, 0.30-m f/9.0 Cassegrain + CCD.
H10 Tzec Maun Observatory, Mayhill.  Observers P. Concari, S. Foglia, G. Galli,
    M. Tombelli, G. Sostero, E. Guido, L. Donato, V. Gonano, E. Bryssinck,
    P. Camilleri, J. Linder.  0.18-m f/2.8 Newtonian reflector + CCD, 0.18-m
    f/7.3 refractor + CCD, 0.36-m f/3.8 reflector + CCD, 0.41-m f/9
    Ritchey-Chretien + CCD.
H11 LightBuckets Observatory, Rodeo.  Observer T. Vorobjov.  0.61-m f/8
    Ritchey-Chretien + CCD.

Orbital elements:
    C/2010 J3 (McMillan)
T 2010 Sept. 28.304 TT                                  MPC
q   2.21022              (2000.0)            P               Q
                   Peri.  180.617       +0.203993       +0.947709
                   Node   101.173       -0.897115       +0.281321
e   1.0            Incl.   14.487       -0.391882       -0.150684
From 91 observations 2010 May 12-13.

Ephemeris:
    C/2010 J3 (McMillan)
Date    TT    R. A. (2000) Decl.     Delta      r     Elong.  Phase   m1    m2
2010 05 04    15 39.45   -01 10.8    1.801    2.769   159.9     7.2  16.7
2010 05 14    15 34.37   -01 12.5    1.724    2.705   162.4     6.5  16.5
2010 05 24    15 28.71   -01 31.2    1.672    2.643   159.2     7.8  16.3
2010 06 03    15 23.29   -02 09.4    1.643    2.584   152.1    10.6  16.2
2010 06 13    15 18.93   -03 07.8    1.637    2.528   143.7    13.8  16.1
2010 06 23    15 16.36   -04 25.6    1.650    2.475   135.0    16.9  16.0
2010 07 03    15 16.10   -06 00.0    1.680    2.427   126.5    19.7  16.0
2010 07 13    15 18.45   -07 47.8    1.724    2.382   118.4    22.0  16.0
2010 07 23    15 23.53   -09 45.3    1.779    2.342   110.9    23.9  15.9

Brian G. Marsden             (C) Copyright 2010 MPC           M.P.E.C. 2010-J80

Read MPEC 2010-J79 Read MPEC 2010-J81


MPEC number:

Enter an MPEC number in one of the following forms:

  • 1997-B01 (the full form)
  • J97B01 (the packed version of the full form)
  • B01 (the abbreviated form)

